Weather Service Report


960 
ASUS42 KFFC 310803
RWRGA 
WEATHER ROUNDUP FOR GEORGIA
NATIONAL WEATHER SERVICE PEACHTREE CITY GA
400 AM EDT TUE MAR 31 2015

NOTE: "FAIR" INDICATES FEW OR NO CLOUDS BELOW 12,000 FEET WITH NO
SIGNIFICANT WEATHER AND/OR OBSTRUCTIONS TO VISIBILITY. 

* = USE WITH CAUTION. THE STATIONS MARKED WITH AN ASTERISK MAY NOT
REPORT WEATHER SUCH AS PRECIPITATION, FOG, OR THUNDER AND ARE NOT 
QUALITY CONTROLLED BY NWS.

THE REMARK "TC" DENOTES TEMPERATURE READING IN DEGREES CELSIUS.

GAZ001>058-310900-
NORTH GEORGIA
  
CITY           SKY/WX    TMP DP  RH WIND       PRES   REMARKS
ATLANTA        CLEAR     50  42  74 W3        30.07F                  
ATHENS         CLEAR     45  40  82 CALM      30.06F                  
CHAMBLEE       CLEAR     43  41  93 CALM      30.07F                  
PEACHTREE CITY CLEAR     42  40  92 CALM      30.09F                  
ROME           CLEAR     41  39  93 CALM      30.07F                  
WEST ATLANTA   CLEAR     44  41  89 CALM      30.08F                  
GAINESVILLE    CLEAR     48  36  63 W3        30.06F                  
CARTERSVILLE   CLEAR     40  38  93 CALM      30.08F                  

  
CITY           SKY/WX    TMP DP  RH WIND       PRES   REMARKS
DALTON*        CLEAR     37  37 100 CALM      30.07F                  
MARIETTA       CLEAR     45  42  91 W2        30.06F                  
$$

GAZ059>098-102>109-310900-
CENTRAL GEORGIA
  
CITY           SKY/WX    TMP DP  RH WIND       PRES   REMARKS
AUGUSTA-BUSH   CLEAR     42  41  96 CALM      30.06F                  
AUGUSTA-DANIEL CLEAR     57  41  55 W5        30.06S                  
COLUMBUS       FAIR      51  48  89 CALM      30.08F                  
MACON          FOG       43  43 100 CALM      30.08F VSB 3/4          
ROBINS AFB     CLEAR     47  47  99 CALM      30.07F FOG              

  
CITY           SKY/WX    TMP DP  RH WIND       PRES   REMARKS
LAGRANGE*      FAIR      46  46  97 CALM      30.08F                  
SYLVANIA*      CLEAR     47  47 100 CALM      30.08F                  
MILLEDGEVILLE* CLEAR     45  45 100 CALM      30.07F                  
$$

GAZ099>101-110>166-310900-
SOUTH GEORGIA
  
CITY           SKY/WX    TMP DP  RH WIND       PRES   REMARKS
SAVANNAH       CLEAR     54  50  87 CALM      30.08F FOG              
VALDOSTA       FOG       55  54  96 CALM      30.10F VSB 1            
ALMA           CLEAR     54  53  97 CALM      30.09S FOG              
ST SIMONS      CLEAR     58  56  93 SW7       30.09F                  
FT STEWART     CLEAR     50  49  95 CALM      30.06F FOG              
ALBANY         FOG       56  55  97 SW3       30.11F VSB 1/4          
HUNTER AFB     CLEAR     53  53 100 W3        30.06S                  
MOODY AFB      PTCLDY    59  57  96 SW5       30.09F                  
BRUNSWICK      CLEAR     59  55  88 SW5       30.10F                  

  
CITY           SKY/WX    TMP DP  RH WIND       PRES   REMARKS
BAINBRIDGE*    CLEAR     63  63 100 SW3       30.10F                  
MOULTRIE*      FOG       59 N/A N/A CALM      30.11F VSB 1/2          
VIDALIA*       CLEAR     52  52 100 W5        30.09F FOG              
WAYCROSS*      CLEAR     60  60  99 SW6       30.09F                  
DOUGLAS*       FOG       57  55  94 SW3       30.10F VSB 1/4          
$$

Return to Home page


Western Regional Climate Center, wrcc@dri.edu